Location: Lane
(33.5226°N, 79.8788°W)
Time: 08:59:15
(UTC+00:00)

Tiros 1 despin weight - Pass Details

Date: 06 October 2022
Orbit: 590 x 637 km, 48.2° (Epoch: 28 November)

Event Time Altitude Azimuth Distance (km) Brightness Sun altitude
Rises 19:02:40 0° 231° (SW) 2,808 ? 42.5°
Reaches altitude 10° 19:04:56 10° 231° (SW) 1,914 ? 42.2°
Maximum altitude 19:09:20 89° 322° (NW) 600 ? 41.6°
Drops below altitude 10° 19:13:48 10° 51° (NE) 1,946 ? 41.0°
Sets 19:16:07 0° 52° (NE) 2,859 ? 40.7°
